Location: Rockford
(40.2514°N, 96.6004°W)
Time: 14:24:32
(UTC+00:00)

LightSail 2 - Visible Passes

Search period start: 22 September 2019 00:00
Search period end: 02 October 2019 00:00
Orbit: 701 x 730 km, 24.0° (Epoch: 21 September)

Date Brightness Start Highest point End Pass type
(mag) Time Alt. Az. Time Alt. Az. Time Alt. Az.
23 Sep 7.4 11:11:33 10° SSW 11:13:05 11° S 11:14:37 10° SSE visible
24 Sep 7.5 10:16:01 10° S 10:16:05 10° S 10:16:33 10° SSE visible
25 Sep 7.3 11:01:44 10° SSW 11:03:42 12° S 11:05:39 10° SSE visible
26 Sep 7.5 10:07:38 11° SSE 10:07:38 11° SSE 10:08:28 10° SSE visible
26 Sep 7.4 11:50:07 10° SSW 11:51:18 11° S 11:52:30 10° S visible
27 Sep 7.3 10:52:58 11° SSW 10:54:16 12° S 10:56:01 10° SSE visible
